This is the latest recevied weather packets stored in our database for station/object iz1wiy-2. If no packets are shown the sender has not sent any weather packets the latest 10 day(s).
| Time | Temp. | Humidity | Pressure | Rain* | Wind** | Luminosity | Snow |
|---|---|---|---|---|---|---|---|
| 1777908903 | 18.89° C | 71% | 1016.8 hPa | 0 mm | - | - | - |
| 1777905603 | 20° C | 70% | 1017 hPa | 0 mm | - | - | - |
| 1777905303 | 19.44° C | 70% | 1017.1 hPa | 0 mm | - | - | - |
| 1777903504 | 19.44° C | 68% | 1017.5 hPa | 0 mm | - | - | - |
| 1777901703 | 19.44° C | 68% | 1017.6 hPa | 0 mm | - | - | - |
| 1777901104 | 19.44° C | 70% | 1017.8 hPa | 0 mm | - | - | - |
| 1777900803 | 18.89° C | 70% | 1017.8 hPa | 0 mm | - | - | - |
| 1777900503 | 18.89° C | 70% | 1017.8 hPa | 0 mm | - | - | - |
| 1777898103 | 19.44° C | 69% | 1018.1 hPa | 0 mm | - | - | - |
| 1777897803 | 19.44° C | 69% | 1018.1 hPa | 0 mm | - | - | - |
| 1777897503 | 18.89° C | 69% | 1018.1 hPa | 0 mm | - | - | - |
| 1777897203 | 19.44° C | 69% | 1018.2 hPa | 0 mm | - | - | - |
| 1777896903 | 18.89° C | 69% | 1018.3 hPa | 0 mm | - | - | - |
| 1777896603 | 18.89° C | 69% | 1018.3 hPa | 0 mm | - | - | - |
| 1777895703 | 18.89° C | 68% | 1018.5 hPa | 0 mm | - | - | - |
| 1777894203 | 18.89° C | 70% | 1018.5 hPa | 0 mm | - | - | - |
| 1777893903 | 18.89° C | 70% | 1018.6 hPa | 0 mm | - | - | - |
| 1777893603 | 18.89° C | 70% | 1018.6 hPa | 0 mm | - | - | - |
| 1777893303 | 18.33° C | 70% | 1018.7 hPa | 0 mm | - | - | - |
| 1777893003 | 18.33° C | 70% | 1018.7 hPa | 0 mm | - | - | - |
| 1777892703 | 18.33° C | 69% | 1018.8 hPa | 0 mm | - | - | - |
| 1777890003 | 18.33° C | 66% | 1018.9 hPa | 0 mm | - | - | - |
| 1777889703 | 18.33° C | 66% | 1018.9 hPa | 0 mm | - | - | - |
| 1777889403 | 18.33° C | 65% | 1018.9 hPa | 0 mm | - | - | - |
| 1777889103 | 18.33° C | 66% | 1018.8 hPa | 0 mm | - | - | - |
* Rain latest hour (hover to see other rain measurements)
** Current wind speed in m/s (hover to see current wind gust speed)